PBO Station Position Time Series. Reference Frame : NAM14
Format Version,1.1.0
4-character ID,P270
Station name,HopkinSlghCN2005
Begin Date, 2005-05-20
End Date, 2019-10-07
Release Date, 2019-10-08
Reference position, 39.2437699775 North Latitude, -122.0552140395 East Longitude, -12.31843 meters elevation,
Date, North (mm), East (mm), Vertical (mm), North Std. Deviation (mm), East Std. Deviation (mm),              Vertical Std. Deviation (mm), Quality,
2005-05-20,0.00, 0.00, 0.00, 2.13, 1.65, 7.42, repro,
2005-05-21,1.85, 1.16, -6.26, 2.11, 1.64, 7.34, repro,
2005-05-22,1.43, 1.24, -6.24, 2.11, 1.65, 7.39, repro,
2005-05-23,3.13, 1.91, -8.66, 2.12, 1.64, 7.35, repro,
2005-05-24,2.20, 2.15, -5.43, 2.11, 1.65, 7.37, repro,
2005-05-25,2.87, 1.52, -5.24, 2.12, 1.64, 7.35, repro,
2005-05-26,1.42, 0.75, -6.80, 2.13, 1.66, 7.44, repro,
2005-05-27,2.27, 1.82, -3.65, 2.12, 1.65, 7.42, repro,
2005-05-28,0.59, 2.18, -11.09, 2.19, 1.73, 7.60, repro,
2005-05-29,0.74, 2.21, -4.27, 2.12, 1.64, 7.37, repro,
2005-05-30,2.38, 1.94, -6.72, 2.13, 1.65, 7.39, repro,
2005-05-31,1.34, 2.07, -5.27, 2.14, 1.67, 7.46, repro,
2005-10-26,5.66, -0.93, -8.70, 4.11, 3.16, 14.45, repro,
2005-10-27,0.57, 0.99, -4.14, 2.11, 1.61, 7.38, repro,
2005-10-28,1.81, -0.91, 5.29, 2.09, 1.62, 7.41, repro,
2005-10-29,0.93, 0.70, 4.37, 2.10, 1.62, 7.42, repro,
2005-10-30,1.68, 1.05, -6.96, 2.07, 1.57, 7.18, repro,
2005-10-31,2.07, 0.21, -7.07, 2.24, 1.72, 7.82, repro,
2005-11-01,0.85, -0.21, -9.89, 2.27, 1.74, 7.87, repro,
2005-11-02,0.17, 1.77, -14.96, 2.22, 1.73, 7.72, repro,
2005-11-03,0.91, 0.16, -2.33, 2.12, 1.64, 7.32, repro,
2005-11-04,3.21, 1.91, 3.45, 2.16, 1.69, 7.54, repro,
2005-11-05,1.01, 0.50, -2.40, 2.20, 1.76, 7.71, repro,
2005-11-06,1.40, 1.59, -2.97, 2.18, 1.71, 7.67, repro,
2005-11-07,2.81, -0.57, -9.08, 2.23, 1.78, 7.88, repro,
2005-11-08,0.80, -0.41, -4.49, 2.18, 1.73, 7.68, repro,
2005-11-09,2.01, -0.36, -7.48, 2.24, 1.80, 7.86, repro,
2005-11-10,2.49, 0.78, -0.53, 2.36, 1.82, 8.18, repro,
2005-11-11,2.50, -1.19, 1.78, 2.26, 1.72, 7.86, repro,
2005-11-12,0.44, -0.39, -2.86, 2.08, 1.65, 7.36, repro,
2005-11-13,2.15, 0.35, -8.42, 2.26, 1.77, 7.84, repro,
2005-11-14,1.12, -1.14, -6.35, 2.12, 1.63, 7.30, repro,
2005-11-15,2.29, 0.00, -4.23, 2.08, 1.58, 7.23, repro,
2005-11-16,2.86, -0.48, -15.60, 2.10, 1.61, 7.31, repro,
2005-11-17,2.45, -0.81, -12.12, 2.08, 1.57, 7.24, repro,
2005-11-18,1.25, -1.07, -11.53, 2.10, 1.59, 7.31, repro,
2005-11-19,2.12, -1.79, -5.72, 2.07, 1.57, 7.23, repro,
2005-11-20,1.22, -1.81, -8.54, 2.11, 1.61, 7.33, repro,
2005-11-21,2.82, -2.61, -5.03, 2.19, 1.70, 7.83, repro,
2005-11-22,1.43, -1.79, -3.58, 2.15, 1.67, 7.57, repro,
2005-11-23,2.63, -0.60, -2.39, 2.11, 1.61, 7.38, repro,
2005-11-24,1.45, -0.30, -0.70, 2.08, 1.59, 7.33, repro,
2005-11-25,3.20, -2.14, -3.48, 2.12, 1.64, 7.55, repro,
2005-11-26,2.33, -1.16, 6.00, 2.17, 1.69, 7.63, repro,
2005-11-27,2.14, -1.36, -4.32, 2.12, 1.65, 7.50, repro,
2005-11-28,1.72, -0.57, -9.55, 2.15, 1.68, 7.66, repro,
2005-11-29,0.99, -0.27, -5.21, 2.16, 1.64, 7.53, repro,
2005-11-30,1.84, -0.45, -9.22, 2.13, 1.64, 7.47, repro,
2005-12-01,2.30, -0.89, -12.28, 2.10, 1.61, 7.29, repro,
2005-12-02,0.49, -0.08, -3.86, 2.11, 1.60, 7.27, repro,
2005-12-03,1.28, -0.69, -1.64, 2.08, 1.59, 7.22, repro,
2005-12-04,2.05, 0.30, -10.23, 2.10, 1.60, 7.27, repro,
2005-12-05,1.08, -0.05, -11.80, 2.08, 1.60, 7.26, repro,
2005-12-06,1.05, -0.91, -7.07, 2.15, 1.64, 7.49, repro,
2005-12-07,1.30, -0.78, -6.38, 2.12, 1.64, 7.40, repro,
2005-12-08,1.83, 0.06, -5.95, 2.12, 1.66, 7.45, repro,
2005-12-09,1.95, 0.13, -7.14, 2.10, 1.60, 7.30, repro,
2005-12-10,1.37, 0.31, -4.47, 2.09, 1.60, 7.28, repro,
2005-12-11,1.32, -0.10, -2.00, 2.05, 1.56, 7.14, repro,
2005-12-12,1.14, -0.60, -3.02, 2.08, 1.57, 7.20, repro,
2005-12-13,1.45, -0.46, -5.47, 2.07, 1.57, 7.20, repro,
2005-12-14,2.04, -0.44, -10.36, 2.10, 1.60, 7.30, repro,
2005-12-15,1.94, -0.34, -11.86, 2.15, 1.62, 7.42, repro,
2005-12-16,0.41, -0.39, -4.66, 2.05, 1.56, 7.14, repro,
2005-12-17,1.79, -0.87, -4.77, 2.15, 1.65, 7.41, repro,
2005-12-18,0.68, 0.03, -2.01, 2.09, 1.65, 7.35, repro,
2005-12-19,1.10, -0.48, -10.98, 2.22, 1.77, 7.66, repro,
2005-12-20,1.22, 0.43, -9.27, 2.16, 1.71, 7.56, repro,
2005-12-21,-0.22, -1.62, -3.51, 2.17, 1.75, 7.50, repro,
2005-12-22,1.62, 0.02, -9.97, 2.11, 1.71, 7.37, repro,
2005-12-23,2.35, -1.04, -12.44, 2.22, 1.76, 7.68, repro,
2005-12-24,1.77, -0.05, -6.57, 2.32, 1.87, 8.22, repro,
2005-12-25,-0.39, -1.38, -4.81, 2.14, 1.70, 7.46, repro,
2005-12-26,0.26, -1.47, -6.32, 2.08, 1.61, 7.17, repro,
2005-12-27,0.18, 0.50, -6.85, 2.23, 1.79, 7.72, repro,
2005-12-28,2.54, -0.74, -11.43, 2.17, 1.69, 7.43, repro,
2005-12-29,0.10, -0.20, -10.26, 2.26, 1.74, 7.76, repro,
2005-12-30,-0.30, 0.05, -5.76, 2.26, 1.81, 7.89, repro,
2005-12-31,0.13, 0.99, -1.84, 2.26, 1.78, 7.92, repro,
2006-01-01,-0.25, -0.79, -7.42, 2.20, 1.73, 7.63, repro,
2006-01-02,2.08, -0.82, -11.51, 2.15, 1.68, 7.31, repro,
2006-01-03,2.37, -1.07, -18.45, 2.42, 1.90, 8.56, repro,
2006-01-04,2.98, 0.13, -25.49, 2.32, 1.88, 8.06, repro,
2006-01-05,1.69, 0.12, -28.33, 2.16, 1.72, 7.51, repro,
2006-01-06,1.27, 0.35, -20.42, 2.25, 1.81, 7.99, repro,
2006-01-07,1.10, -0.55, -12.06, 2.23, 1.74, 7.81, repro,
2006-01-08,1.49, 1.44, -7.99, 2.28, 1.85, 8.03, repro,
2006-01-09,0.69, -0.23, -12.03, 2.22, 1.77, 7.70, repro,
2006-01-10,2.88, -0.80, -14.41, 2.25, 1.83, 7.88, repro,
2006-01-11,3.22, 0.81, -0.98, 2.28, 1.84, 8.06, repro,
2006-01-12,1.55, 0.34, -9.89, 2.25, 1.78, 7.76, repro,
2006-01-13,1.70, 0.87, -7.25, 2.27, 1.81, 8.04, repro,
2006-01-14,0.92, -0.09, -8.17, 2.13, 1.66, 7.28, repro,
2006-01-15,1.90, -0.94, -6.06, 2.10, 1.62, 7.25, repro,
2006-01-16,1.64, 0.89, -12.97, 2.24, 1.81, 7.71, repro,
2006-01-17,1.90, -0.64, -8.07, 2.19, 1.72, 7.47, repro,
2006-01-18,1.49, -0.65, -2.79, 2.11, 1.62, 7.28, repro,
2006-01-19,1.94, -0.52, -12.02, 2.14, 1.62, 7.38, repro,
2006-01-20,0.79, -0.00, -16.20, 2.13, 1.61, 7.38, repro,
2006-01-21,1.80, 0.19, -10.39, 2.12, 1.63, 7.30, repro,
2006-01-22,2.37, 0.22, -11.72, 2.12, 1.59, 7.19, repro,
2006-01-23,2.34, 0.04, -8.02, 2.09, 1.56, 7.08, repro,
2006-01-24,2.28, 0.39, -9.74, 2.12, 1.61, 7.29, repro,
2006-01-25,1.04, -0.18, -7.78, 2.02, 1.54, 7.02, repro,
2006-01-26,2.24, -0.28, -9.95, 2.03, 1.54, 7.03, repro,
2006-01-27,1.87, 0.15, -10.64, 2.04, 1.54, 7.06, repro,
2006-01-28,2.78, 0.08, -8.19, 2.05, 1.54, 7.07, repro,
2006-01-29,2.31, -0.19, -9.47, 2.10, 1.59, 7.25, repro,
2006-01-30,1.38, -0.03, -13.53, 2.08, 1.56, 7.21, repro,
2006-01-31,1.25, -0.60, -8.30, 2.05, 1.55, 7.15, repro,
2006-02-01,0.11, 0.26, -0.85, 2.06, 1.55, 7.16, repro,
2006-02-02,1.89, -1.01, -6.76, 2.08, 1.56, 7.22, repro,
2006-02-03,1.14, 0.50, -7.66, 2.06, 1.55, 7.13, repro,
2006-02-04,0.36, -0.21, -13.45, 2.10, 1.58, 7.39, repro,
2006-02-05,1.99, -0.49, -6.08, 2.07, 1.55, 7.18, repro,
2006-02-06,0.49, 0.20, -12.87, 2.04, 1.54, 7.13, repro,
2006-02-07,1.44, 0.35, -12.71, 2.05, 1.53, 7.14, repro,
2006-02-08,2.11, 0.62, -11.80, 2.05, 1.54, 7.13, repro,
2006-02-09,1.13, 0.29, -8.99, 2.12, 1.55, 7.32, repro,
2006-02-10,1.87, -0.48, -13.39, 2.21, 1.58, 7.52, repro,
2006-02-11,1.24, 0.14, -17.52, 2.07, 1.55, 7.23, repro,
2006-02-12,1.16, -0.35, -15.78, 2.06, 1.52, 7.18, repro,
2006-02-13,1.28, 0.13, -9.63, 2.06, 1.52, 7.15, repro,
2006-02-14,1.35, 0.67, 0.91, 2.06, 1.53, 7.18, repro,
2006-02-15,1.64, 0.24, -5.01, 2.06, 1.53, 7.18, repro,
2006-02-16,1.90, 0.16, -7.03, 2.08, 1.53, 7.21, repro,
2006-02-17,1.42, -0.04, -9.29, 2.06, 1.52, 7.14, repro,
2006-02-18,0.37, -0.18, -8.06, 2.07, 1.54, 7.18, repro,
2006-02-19,1.69, 0.56, -8.39, 2.07, 1.54, 7.19, repro,
2006-02-20,0.91, 1.03, -7.41, 2.05, 1.53, 7.16, repro,
2006-02-21,1.86, 1.19, -0.88, 2.07, 1.54, 7.23, repro,
2006-02-22,1.81, 0.96, -0.60, 2.07, 1.53, 7.18, repro,
2006-02-23,1.83, 0.73, -7.20, 2.06, 1.53, 7.18, repro,
2006-02-24,1.85, 0.84, -5.65, 2.08, 1.55, 7.25, repro,
2006-02-25,1.86, 0.86, -9.67, 2.07, 1.54, 7.20, repro,
2006-02-26,0.71, 0.69, -9.72, 2.04, 1.54, 7.21, repro,
2006-02-27,1.81, 2.15, -1.92, 2.10, 1.57, 7.35, repro,
2006-02-28,2.28, 0.26, 5.63, 2.15, 1.58, 7.47, repro,
2006-03-01,1.48, 0.42, -3.24, 2.16, 1.61, 7.44, repro,
2006-03-02,2.00, 1.28, -13.20, 2.08, 1.55, 7.25, repro,
2006-03-03,1.14, 1.54, -11.31, 2.15, 1.57, 7.51, repro,
2006-03-04,1.56, 0.24, -11.31, 2.05, 1.56, 7.17, repro,
2006-03-05,1.61, 0.71, -2.59, 2.06, 1.55, 7.22, repro,
2006-03-06,1.51, 0.09, -9.92, 2.05, 1.55, 7.22, repro,
2006-03-07,2.27, 0.90, -13.10, 2.06, 1.55, 7.25, repro,
2006-03-08,1.77, 0.19, -16.22, 2.06, 1.56, 7.23, repro,
2006-03-09,0.36, 0.71, -3.27, 2.04, 1.55, 7.18, repro,
2006-03-10,0.71, 0.04, -1.77, 2.04, 1.55, 7.16, repro,
2006-03-11,0.69, 0.21, 5.45, 2.10, 1.56, 7.31, repro,
2006-03-12,0.69, 0.79, -2.89, 2.09, 1.56, 7.30, repro,
2006-03-13,2.58, 1.07, -6.31, 2.10, 1.57, 7.28, repro,
2006-03-14,2.30, 2.78, -10.43, 2.09, 1.58, 7.39, repro,
2006-03-15,1.69, 0.58, -8.17, 2.10, 1.58, 7.38, repro,
2006-03-16,1.09, -1.23, -12.33, 2.16, 1.60, 7.49, repro,
2006-03-17,0.93, 0.81, -1.92, 2.15, 1.60, 7.46, repro,
2006-03-18,2.89, -0.50, -12.32, 2.09, 1.58, 7.27, repro,
2006-03-19,1.49, 0.23, -6.47, 2.09, 1.59, 7.32, repro,
2006-03-20,0.89, 0.34, -5.22, 2.07, 1.59, 7.34, repro,
2006-03-21,1.52, 0.85, -5.96, 2.09, 1.60, 7.37, repro,
2006-03-22,1.54, 0.18, -13.23, 2.09, 1.60, 7.38, repro,
2006-03-23,0.93, 1.12, -13.61, 2.13, 1.62, 7.43, repro,
2006-03-24,3.38, -0.08, -3.76, 2.16, 1.63, 7.57, repro,
2006-03-25,1.78, -1.10, -3.59, 2.16, 1.64, 7.63, repro,
2006-03-26,1.66, 0.54, -4.31, 2.13, 1.63, 7.49, repro,
2006-03-27,2.23, 0.45, -2.73, 2.15, 1.63, 7.52, repro,
2006-03-28,0.96, 0.04, -5.54, 2.07, 1.60, 7.31, repro,
2006-03-29,1.24, 0.22, -1.24, 2.01, 1.57, 7.16, repro,
2006-03-30,2.09, 0.76, -5.53, 2.01, 1.57, 7.16, repro,
2006-03-31,0.69, 0.68, -10.85, 2.00, 1.57, 7.15, repro,
2006-04-01,2.62, -0.12, -7.12, 2.00, 1.57, 7.14, repro,
2006-04-02,2.44, 0.37, -3.90, 2.02, 1.57, 7.23, repro,
2006-04-03,2.09, -0.27, -12.21, 2.02, 1.58, 7.22, repro,
2006-04-04,1.37, -0.02, -1.83, 2.04, 1.58, 7.23, repro,
2006-04-05,2.19, -0.49, -2.00, 2.05, 1.61, 7.43, repro,
2006-04-06,0.23, -0.39, -4.01, 2.05, 1.61, 7.43, repro,
2006-04-07,1.63, 0.94, -9.26, 2.11, 1.63, 7.56, repro,
2006-04-08,2.63, -0.03, -9.28, 2.15, 1.62, 7.60, repro,
2006-04-09,3.37, -0.96, -4.10, 2.03, 1.57, 7.22, repro,
2006-04-10,2.16, 0.67, -7.03, 2.02, 1.57, 7.19, repro,
2006-04-11,1.98, 0.84, -0.09, 2.08, 1.61, 7.49, repro,
2006-04-12,1.64, 0.59, -7.79, 2.08, 1.61, 7.52, repro,
2006-04-13,2.59, 0.13, -12.51, 2.00, 1.56, 7.20, repro,
2006-04-14,1.85, -0.04, -4.37, 2.01, 1.56, 7.20, repro,
2006-04-15,4.71, -1.41, -0.41, 2.08, 1.61, 7.40, repro,
2006-04-16,2.64, 1.18, -6.50, 2.02, 1.57, 7.25, repro,
2006-04-17,1.74, -0.53, -8.45, 2.01, 1.58, 7.25, repro,
2006-04-18,2.21, 0.48, -8.20, 2.01, 1.58, 7.25, repro,
2006-04-19,1.57, 0.32, -8.43, 2.00, 1.56, 7.16, repro,
2006-04-20,2.52, 0.07, -5.33, 2.05, 1.61, 7.40, repro,
2006-04-21,1.58, 1.04, -7.32, 2.02, 1.57, 7.22, repro,
2006-04-22,1.74, 0.51, -6.91, 2.01, 1.57, 7.23, repro,
2006-04-23,2.38, 0.02, -6.45, 2.09, 1.69, 7.61, repro,
2006-04-24,1.59, 0.77, -7.00, 2.03, 1.60, 7.32, repro,
2006-04-25,1.92, 0.57, -6.60, 2.04, 1.61, 7.39, repro,
2006-04-26,2.05, 0.14, -1.55, 2.06, 1.61, 7.40, repro,
2006-04-27,1.65, 1.17, -4.39, 2.12, 1.61, 7.44, repro,
2006-04-28,1.30, 1.41, -8.21, 2.07, 1.57, 7.27, repro,
2006-04-29,2.20, 0.75, -8.80, 2.02, 1.58, 7.26, repro,
2006-04-30,3.20, 0.98, -12.21, 2.00, 1.57, 7.23, repro,
2006-05-01,2.27, 0.82, -6.99, 2.02, 1.57, 7.25, repro,
2006-05-02,2.42, 0.32, -5.51, 2.01, 1.56, 7.19, repro,
2006-05-03,3.07, -0.33, -3.91, 2.03, 1.57, 7.29, repro,
2006-05-04,2.43, 0.37, 2.40, 2.02, 1.58, 7.29, repro,
2006-05-05,1.42, 0.08, -6.20, 2.01, 1.57, 7.28, repro,
2006-05-06,3.04, 1.31, -4.53, 2.05, 1.62, 7.45, repro,
2006-05-07,2.51, 0.38, -1.40, 2.03, 1.57, 7.28, repro,
2006-05-08,1.96, 0.95, -2.63, 2.03, 1.57, 7.27, repro,
2006-05-09,1.69, -0.03, -2.35, 2.08, 1.60, 7.39, repro,
2006-05-10,2.59, 0.49, 0.03, 2.01, 1.57, 7.24, repro,
2006-05-11,2.75, -0.08, 0.15, 2.01, 1.58, 7.25, repro,
2006-05-12,2.58, -0.83, 0.57, 2.00, 1.57, 7.24, repro,
2006-05-13,2.85, 1.13, -2.93, 2.03, 1.56, 7.23, repro,
2006-05-14,1.60, 0.23, -9.77, 2.01, 1.56, 7.22, repro,
2006-05-15,1.75, 1.84, -3.06, 2.02, 1.57, 7.30, repro,
2006-05-16,1.92, 1.69, -1.79, 2.04, 1.62, 7.44, repro,
2006-05-17,1.32, 1.65, -0.20, 2.04, 1.62, 7.44, repro,
2006-05-18,1.26, 1.01, 2.69, 2.05, 1.58, 7.31, repro,
2006-05-19,1.55, 1.56, -1.72, 2.11, 1.63, 7.47, repro,
2006-05-20,0.12, 1.58, -2.16, 2.10, 1.59, 7.37, repro,
2006-05-21,3.16, 1.47, -2.12, 2.09, 1.60, 7.38, repro,
2006-05-22,1.64, 1.94, 0.57, 2.09, 1.64, 7.46, repro,
2006-05-23,1.26, 0.68, -0.94, 2.08, 1.59, 7.35, repro,
2006-05-24,1.09, 0.90, -6.94, 2.08, 1.60, 7.39, repro,
2006-05-25,2.33, 0.79, -6.68, 2.19, 1.66, 7.74, repro,
2006-05-26,2.67, 0.44, -4.76, 2.15, 1.63, 7.60, repro,
2006-05-27,2.54, 1.08, 3.35, 2.13, 1.62, 7.52, repro,
2006-05-28,3.31, 0.33, -4.32, 2.08, 1.59, 7.38, repro,
2006-05-29,3.12, 1.48, -4.84, 2.08, 1.59, 7.38, repro,
2006-05-30,3.42, 0.72, -2.98, 2.15, 1.63, 7.59, repro,
2006-05-31,2.48, 1.24, -7.56, 2.14, 1.62, 7.52, repro,
2006-06-01,1.88, 1.49, -3.06, 2.13, 1.63, 7.58, repro,
2006-06-02,3.04, -0.72, -5.48, 2.17, 1.66, 7.70, repro,
2006-06-03,1.90, 1.42, -5.24, 2.16, 1.65, 7.65, repro,
2006-06-04,2.10, -1.10, 0.78, 2.14, 1.62, 7.52, repro,
2006-06-05,2.95, 0.42, -5.55, 2.15, 1.62, 7.60, repro,
2006-06-06,3.09, 0.71, 6.26, 2.14, 1.62, 7.56, repro,
2006-06-07,3.23, 0.26, -7.32, 2.20, 1.66, 7.82, repro,
2006-06-08,2.58, 0.55, 0.71, 2.09, 1.64, 7.63, repro,
2006-06-09,2.73, 0.78, -3.67, 2.13, 1.62, 7.51, repro,
2006-06-10,1.53, 1.94, -0.01, 2.09, 1.59, 7.37, repro,
2006-06-11,1.27, 0.51, 0.82, 2.11, 1.62, 7.52, repro,
2006-06-12,4.27, 1.11, -4.21, 2.11, 1.63, 7.57, repro,
2006-06-13,4.51, 1.51, -10.31, 2.13, 1.61, 7.49, repro,
2006-06-14,4.09, 1.57, -8.13, 2.07, 1.58, 7.30, repro,
2006-06-15,2.23, 1.47, -0.52, 2.07, 1.58, 7.28, repro,
2006-06-16,2.51, 2.29, -6.65, 2.08, 1.58, 7.33, repro,
2006-06-17,4.34, 1.69, -6.37, 2.09, 1.60, 7.46, repro,
2006-06-18,3.07, 0.74, 1.86, 2.09, 1.64, 7.57, repro,
2006-06-19,2.46, 0.46, -12.65, 2.10, 1.62, 7.54, repro,
2006-06-20,3.09, 1.19, -8.01, 2.10, 1.61, 7.50, repro,
2006-06-21,2.33, 0.80, -7.20, 2.08, 1.62, 7.46, repro,
2006-06-22,3.07, 0.56, -6.59, 2.09, 1.63, 7.56, repro,
2006-06-23,2.99, 1.31, -9.75, 2.09, 1.63, 7.57, repro,
2006-06-24,2.37, 1.15, -6.66, 2.09, 1.63, 7.57, repro,
2006-06-25,3.17, 1.34, -9.28, 2.10, 1.63, 7.57, repro,
2006-06-26,1.43, 0.53, -9.18, 2.09, 1.62, 7.51, repro,
2006-06-27,2.23, -1.69, -2.04, 2.19, 1.75, 7.86, repro,
2006-06-28,4.22, -1.42, -3.79, 2.09, 1.64, 7.59, repro,
2006-06-29,2.59, 1.80, -1.22, 2.04, 1.61, 7.49, repro,
2006-06-30,2.68, 3.30, -6.93, 2.05, 1.59, 7.37, repro,
2006-07-01,3.16, 2.62, -7.44, 2.07, 1.59, 7.41, repro,
2006-07-02,3.47, 1.45, -13.43, 2.09, 1.68, 7.72, repro,
2006-07-03,3.91, 1.43, -14.35, 2.06, 1.59, 7.44, repro,
2006-07-04,2.30, 1.59, -11.91, 2.06, 1.59, 7.42, repro,
2006-07-05,1.91, 1.86, -9.47, 2.06, 1.59, 7.41, repro,
2006-07-06,2.95, 2.32, -14.75, 2.06, 1.59, 7.43, repro,
2006-07-07,2.86, 2.44, -14.90, 2.06, 1.59, 7.44, repro,
2006-07-08,2.08, 2.54, -6.27, 2.04, 1.59, 7.40, repro,
2006-07-09,3.84, -0.34, -6.80, 2.07, 1.60, 7.51, repro,
2006-07-10,-0.21, 3.07, -13.67, 2.08, 1.60, 7.59, repro,
2006-07-11,1.35, 1.50, -3.48, 2.07, 1.59, 7.50, repro,
2006-07-12,2.76, 1.00, -10.91, 2.06, 1.59, 7.49, repro,
2006-07-13,1.90, 2.41, -9.19, 2.10, 1.64, 7.72, repro,
2006-07-14,2.37, 2.58, -8.52, 2.05, 1.59, 7.47, repro,
2006-07-15,1.27, 1.48, -7.13, 2.05, 1.59, 7.44, repro,
2006-07-16,3.56, 2.29, -15.71, 2.07, 1.60, 7.55, repro,
2006-07-17,1.51, 1.36, -12.68, 2.11, 1.64, 7.80, repro,
2006-07-18,0.73, 1.60, -3.03, 2.00, 1.57, 7.24, repro,
2006-07-19,4.29, 2.74, -8.40, 2.01, 1.57, 7.33, repro,
2006-07-20,1.00, 2.97, -6.00, 2.07, 1.63, 7.55, repro,
2006-07-21,3.12, 0.84, -4.37, 2.00, 1.57, 7.25, repro,
2006-07-22,2.35, 3.46, -0.11, 2.02, 1.56, 7.26, repro,
2006-07-23,2.49, 3.26, -7.14, 2.02, 1.56, 7.27, repro,
2006-07-24,3.48, 1.50, -5.34, 2.04, 1.60, 7.35, repro,
2006-07-25,1.99, 2.13, -7.75, 2.07, 1.62, 7.47, repro,
2006-07-26,2.58, 1.88, -5.76, 2.04, 1.61, 7.36, repro,
2006-07-27,2.60, 1.31, -4.12, 2.00, 1.57, 7.22, repro,
2006-07-28,2.35, 2.19, -9.21, 2.01, 1.56, 7.22, repro,
2006-07-29,1.85, 1.68, -15.18, 2.00, 1.56, 7.19, repro,
2006-07-30,4.81, 1.46, -8.38, 2.05, 1.63, 7.44, repro,
2006-07-31,1.68, 1.42, 6.12, 2.00, 1.57, 7.29, repro,
2006-08-01,4.02, 2.88, -9.95, 2.07, 1.59, 7.37, repro,
2006-08-02,2.17, 2.42, -2.79, 2.03, 1.61, 7.49, repro,
2006-08-03,1.97, 2.68, -8.92, 2.07, 1.66, 7.67, repro,
2006-08-04,3.26, 1.28, -6.40, 2.09, 1.64, 7.61, repro,
2006-08-05,2.06, 1.24, -5.02, 2.09, 1.66, 7.73, repro,
2006-08-06,3.81, 1.48, -15.29, 2.04, 1.61, 7.51, repro,
2006-08-07,0.69, -0.15, -9.80, 2.04, 1.62, 7.57, repro,
2006-08-08,1.98, 1.37, -10.92, 2.00, 1.57, 7.22, repro,
2006-08-09,2.84, 3.13, -8.83, 2.01, 1.57, 7.29, repro,
2006-08-10,1.91, 1.16, -5.44, 2.01, 1.57, 7.30, repro,
2006-08-11,2.17, 1.40, -8.70, 2.02, 1.58, 7.32, repro,
2006-08-12,1.05, 1.52, -7.99, 2.00, 1.57, 7.28, repro,
2006-08-13,1.27, 2.59, -10.74, 1.98, 1.56, 7.17, repro,
2006-08-14,2.13, 0.76, -1.47, 2.04, 1.62, 7.35, repro,
2006-08-15,2.88, 2.24, -8.68, 2.19, 1.75, 7.79, repro,
2006-08-16,1.68, 2.45, -4.72, 2.11, 1.70, 7.62, repro,
2006-08-17,3.01, 2.57, -13.45, 2.12, 1.65, 7.55, repro,
2006-08-18,0.56, 1.53, -9.78, 2.07, 1.66, 7.49, repro,
2006-08-19,2.40, 1.58, -8.70, 1.99, 1.56, 7.19, repro,
2006-08-20,2.43, 1.15, -3.63, 2.00, 1.57, 7.24, repro,
2006-08-21,1.54, 2.23, -8.23, 2.02, 1.60, 7.34, repro,
2006-08-22,0.34, 1.29, -3.29, 2.02, 1.60, 7.36, repro,
2006-08-23,-0.03, 1.30, -4.94, 2.01, 1.60, 7.34, repro,
2006-08-24,1.14, 1.33, -0.52, 1.99, 1.59, 7.27, repro,
2006-08-25,0.16, 1.55, -0.60, 2.04, 1.63, 7.55, repro,
2006-08-26,1.13, 0.79, -2.31, 2.06, 1.67, 7.68, repro,
2006-08-27,1.42, 1.25, -10.46, 2.20, 1.84, 8.20, repro,
2006-08-28,0.74, 1.01, -6.42, 2.06, 1.68, 7.71, repro,
2006-08-29,1.10, 1.11, -6.98, 2.06, 1.68, 7.66, repro,
2006-08-30,0.72, 1.87, -6.81, 2.15, 1.70, 7.89, repro,
2006-08-31,1.53, 1.28, -5.12, 2.07, 1.68, 7.69, repro,
2006-09-01,0.41, 0.44, -7.89, 2.12, 1.70, 7.85, repro,
2006-09-02,1.51, 0.39, -10.62, 2.06, 1.69, 7.73, repro,
2006-09-03,1.32, 0.93, -7.67, 2.06, 1.68, 7.69, repro,
2006-09-04,3.13, 1.42, -12.82, 2.14, 1.71, 7.86, repro,
2006-09-05,1.48, 1.16, -13.17, 2.14, 1.71, 7.84, repro,
2006-09-06,1.19, 0.49, -5.03, 2.07, 1.68, 7.68, repro,
2006-09-07,1.94, 0.42, 0.91, 2.13, 1.73, 8.02, repro,
2006-09-08,0.49, 0.39, -3.94, 2.11, 1.73, 7.94, repro,
2006-09-09,0.09, 1.26, -5.33, 2.05, 1.64, 7.49, repro,
2006-09-10,2.15, 0.46, -5.97, 2.03, 1.63, 7.39, repro,
2006-09-11,0.69, -0.08, -2.49, 2.04, 1.63, 7.44, repro,
2006-09-12,1.10, 0.54, -4.10, 2.04, 1.64, 7.47, repro,
2006-09-13,0.45, 1.12, 0.16, 2.03, 1.65, 7.49, repro,
2006-09-14,0.77, -0.29, -1.07, 2.16, 1.75, 7.87, repro,
2006-09-15,2.13, 0.75, -1.84, 2.13, 1.67, 7.56, repro,
2006-09-16,1.49, 0.24, 1.34, 2.03, 1.60, 7.32, repro,
2006-09-17,0.07, 0.12, 1.94, 2.01, 1.59, 7.32, repro,
2006-09-18,0.74, -0.46, 2.98, 2.00, 1.59, 7.29, repro,
2006-09-19,0.56, 0.06, 5.72, 2.03, 1.60, 7.35, repro,
2006-09-20,1.11, -0.68, -2.13, 2.01, 1.59, 7.27, repro,
2006-09-21,1.77, -1.28, 4.00, 2.05, 1.64, 7.44, repro,
2006-09-22,0.06, -0.93, 4.11, 2.11, 1.68, 7.66, repro,
2006-09-23,-0.22, 0.27, 4.96, 2.05, 1.63, 7.47, repro,
2006-09-24,1.57, -0.13, -0.24, 2.16, 1.68, 7.77, repro,
2006-09-25,1.08, 0.48, -0.33, 2.11, 1.64, 7.55, repro,
2006-09-26,0.12, 0.02, -2.21, 2.11, 1.67, 7.50, repro,
2006-09-27,0.33, -0.32, -3.12, 2.15, 1.67, 7.70, repro,
2006-09-28,0.11, -0.46, -2.28, 2.11, 1.68, 7.58, repro,
2006-09-29,0.75, -0.34, 5.46, 2.07, 1.62, 7.39, repro,
2006-09-30,-0.02, -0.05, 7.09, 2.06, 1.64, 7.55, repro,
2006-10-01,0.50, 0.17, 4.54, 2.03, 1.61, 7.35, repro,
2006-10-02,0.34, -0.79, 2.77, 2.11, 1.69, 7.57, repro,
2006-10-03,-0.67, 0.35, -5.51, 2.13, 1.73, 7.78, repro,
2006-10-04,0.66, -0.14, 1.03, 2.03, 1.62, 7.41, repro,
2006-10-05,1.00, -0.72, 1.15, 2.03, 1.62, 7.40, repro,
2006-10-06,0.50, -0.37, 1.59, 2.03, 1.60, 7.31, repro,
2006-10-07,-0.07, 0.21, -4.24, 2.12, 1.69, 7.77, repro,
2006-10-08,0.16, 0.16, -3.49, 2.14, 1.70, 7.87, repro,
2006-10-09,0.37, -0.19, -0.87, 2.12, 1.68, 7.66, repro,
2006-10-10,-1.51, 0.65, 1.51, 2.08, 1.65, 7.63, repro,
2006-10-11,-1.19, 0.96, 1.13, 2.04, 1.63, 7.49, repro,
2006-10-12,-0.05, 1.50, 4.93, 2.08, 1.62, 7.41, repro,
2006-10-13,-1.09, 0.49, -0.14, 2.04, 1.61, 7.38, repro,
2006-10-14,-0.15, 0.99, 0.57, 2.10, 1.66, 7.60, repro,
2006-10-15,-0.24, 0.32, 3.22, 2.03, 1.65, 7.55, repro,
2006-10-16,0.50, 1.40, 4.29, 2.01, 1.60, 7.35, repro,
2006-10-17,-0.33, 1.38, 8.26, 2.10, 1.67, 7.77, repro,
2006-10-18,0.30, 0.18, -0.50, 2.06, 1.66, 7.65, repro,
2006-10-19,1.01, 1.46, 3.17, 2.21, 1.69, 8.05, repro,
2006-10-20,0.61, 0.28, 0.25, 2.29, 1.86, 8.92, repro,
2006-10-21,-0.54, 0.57, -0.60, 2.25, 1.78, 8.27, repro,
2006-10-22,-0.28, 0.52, -2.63, 2.13, 1.68, 7.97, repro,
2006-10-23,-0.06, -0.07, -7.09, 2.06, 1.67, 7.63, repro,
2006-10-24,0.61, -0.44, 1.35, 2.21, 1.71, 8.12, repro,
2006-10-25,0.44, -0.74, 2.19, 2.21, 1.73, 8.14, repro,
2006-10-26,0.63, -0.05, 1.35, 2.06, 1.69, 7.69, repro,
2006-10-27,0.85, 0.42, -7.05, 2.05, 1.71, 7.67, repro,
2006-10-28,0.39, 0.24, -8.23, 2.20, 1.72, 8.05, repro,
2006-10-29,0.56, -0.15, 0.65, 2.04, 1.67, 7.62, repro,
2006-10-30,-0.25, 0.29, -0.03, 2.01, 1.64, 7.45, repro,
2006-10-31,-0.41, 0.05, 0.06, 2.04, 1.68, 7.66, repro,
2006-11-01,0.64, -0.53, -0.80, 2.01, 1.63, 7.46, repro,
2006-11-02,0.52, 0.55, 2.98, 2.04, 1.63, 7.51, repro,
2006-11-03,0.57, 0.17, 1.20, 2.05, 1.68, 7.68, repro,
2006-11-04,0.50, -0.80, -3.89, 2.11, 1.68, 7.71, repro,
2006-11-05,1.81, -0.18, 2.23, 2.08, 1.66, 7.62, repro,
2006-11-06,0.53, -0.43, -6.18, 1.97, 1.61, 7.36, repro,
2006-11-07,1.46, -0.65, -10.43, 2.15, 1.75, 7.98, repro,
2006-11-08,3.34, -3.07, -1.79, 2.14, 1.71, 7.91, repro,
2006-11-09,0.77, -0.71, -0.98, 2.15, 1.74, 7.97, repro,
2006-11-10,0.98, 0.18, -3.69, 2.07, 1.63, 7.56, repro,
2006-11-11,-0.41, -0.85, -1.10, 2.11, 1.69, 7.80, repro,
2006-11-12,-0.64, -1.27, 2.82, 2.15, 1.72, 7.80, repro,
2006-11-13,0.74, -0.93, -8.14, 2.12, 1.69, 7.70, repro,
2006-11-14,-0.09, -2.47, 6.14, 2.09, 1.68, 7.70, repro,
2006-11-15,0.16, -0.36, -4.80, 2.00, 1.60, 7.33, repro,
2006-11-16,2.35, -0.30, 4.35, 1.99, 1.60, 7.30, repro,
2006-11-17,1.14, -0.23, -0.21, 1.97, 1.59, 7.23, repro,
2006-11-18,0.80, 0.26, -1.80, 1.99, 1.59, 7.25, repro,
2006-11-19,0.45, -1.24, -7.01, 1.97, 1.58, 7.16, repro,
2006-11-20,0.05, -1.52, -1.32, 1.99, 1.59, 7.29, repro,
2006-11-21,0.94, -2.05, 6.04, 2.00, 1.63, 7.36, repro,
2006-11-22,0.68, -1.52, -5.10, 1.98, 1.61, 7.28, repro,
2006-11-23,1.45, 0.01, -2.44, 2.02, 1.65, 7.55, repro,
2006-11-24,0.27, -1.35, -2.87, 2.07, 1.67, 7.64, repro,
2006-11-25,0.22, -1.16, -2.23, 2.00, 1.60, 7.26, repro,
2006-11-26,1.90, -1.25, 0.85, 2.08, 1.66, 7.55, repro,
2006-11-27,1.21, -0.37, 1.64, 2.02, 1.61, 7.36, repro,
2006-11-28,-0.93, -0.51, 2.11, 1.99, 1.61, 7.29, repro,
2006-11-29,1.13, -0.61, -2.86, 1.98, 1.60, 7.27, repro,
2006-11-30,1.35, -0.10, -7.72, 1.96, 1.59, 7.18, repro,
2006-12-01,1.46, -0.17, -8.41, 1.98, 1.60, 7.25, repro,
2006-12-02,0.95, -1.06, -7.83, 1.98, 1.60, 7.27, repro,
2006-12-03,1.29, -0.96, -4.37, 1.99, 1.62, 7.32, repro,
2006-12-04,0.99, -0.63, -9.49, 2.04, 1.63, 7.42, repro,
2006-12-05,1.18, -0.72, -4.34, 1.99, 1.65, 7.34, repro,
2006-12-06,1.51, -0.95, -3.12, 2.09, 1.73, 7.67, repro,
2006-12-07,0.85, -0.97, -7.87, 2.01, 1.68, 7.49, repro,
2006-12-08,0.75, -1.39, -4.52, 2.01, 1.68, 7.48, repro,
2006-12-09,2.00, -1.08, 3.56, 2.08, 1.72, 7.69, repro,
2006-12-10,-0.78, -1.16, -6.34, 2.07, 1.71, 7.65, repro,
2006-12-11,0.67, -0.73, -3.53, 1.97, 1.62, 7.28, repro,